[[{"header":{"parameterUnit":"m.s-1","parameterCategory":2,"la1":30.2991,"la2":30.254,"lo1":-89.0895,"lo2":-89.0444,"dy":0.0017,"dx":0.0017,"nx":28,"ny":28,"refTime":"2023-07-28T03:00:00:Z","depth":"0","parameterNumber":2,"parameterNumberName":"U-component_of_CURRENTS"},"data":[0,0,0,0,0,0,0,0,0,0,0,0,0,0,0,0,0,0,0,0,0,0,0,0,0,0,0,0,0,0,0,0,0,0,0,0,0,0,0,0,0,0,0,0,0,0,0,0,0,0,0,0,0,0,0,0,0,0,0.3424,0.3423,0,0.3319,0.3318,0.3317,0.3105,0.3101,0.3097,0.3093,0.3063,0.3066,0.3069,0,0,0,0,0,0,0,0,0,0,0,0,0,0.3496,0.3495,0.3424,0.3423,0.3422,0.332,0.3318,0.3316,0.3106,0.3101,0.3096,0.3091,0.3062,0.3066,0.3069,0,0,0,0,0,0,0,0,0,0,0,0,0,0.3434,0.3495,0.3424,0.3305,0.3294,0.332,0.3318,0.3316,0.3107,0.31,0.3094,0.3089,0.3061,0.3065,0.307,0.3219,0,0,0.3083,0.3085,0,0,0,0,0,0,0,0,0.3438,0.3431,0.3324,0.3314,0.3301,0.322,0.3332,0.3288,0.3108,0.3176,0.3093,0.3086,0.3129,0.3127,0.3117,0.3217,0.3216,0.3084,0.3086,0.3088,0.309,0,0,0,0,0,0,0,0.3442,0.3435,0.3381,0.3323,0.3309,0.3276,0.326,0.3323,0.3188,0.3169,0.3154,0.3148,0.3121,0.3113,0.3115,0.3216,0.3084,0.3087,0.309,0.3092,0.3596,0.3606,0,0,0,0,0,0,0.3463,0.3439,0.3384,0.3378,0.3358,0.328,0.3262,0.3251,0.3185,0.3169,0.3153,0.3138,0.3109,0.311,0.3113,0.3347,0.3088,0.3092,0.3095,0.3586,0.3599,0.361,0,0,0,0,0,0,0.3465,0.3459,0.3388,0.3407,0.3396,0.3285,0.3275,0.3252,0.3245,0.3172,0.3155,0.3169,0.3104,0.3107,0.3232,0.3341,0.3094,0.3098,0.3573,0.359,0.3604,0.3776,0,0,0,0,0,0,0.3467,0.346,0.3493,0.3409,0.3396,0.3475,0.328,0.3255,0.3251,0.3231,0.3183,0.3171,0.3099,0.3227,0.3237,0.3343,0.3102,0.3559,0.358,0.3599,0.3757,0.3796,0.3829,0,0,0,0,0,0.347,0.3549,0.3495,0.3489,0.3432,0.3482,0.3477,0.3373,0.3259,0.3329,0.3288,0.3172,0.3361,0.3239,0.3248,0.3357,0.355,0.3574,0.3598,0.374,0.3788,0.3828,0,0,0,0,0,0,0.3612,0.3533,0.3471,0.3523,0.3531,0.3447,0.35,0.3416,0.3433,0.3408,0.3296,0.3293,0.346,0.3432,0.3298,0.3585,0.3446,0.3473,0.3552,0.3596,0.3632,0.3571,0.3106,0,0,0,0,0,0.366,0.3682,0.3626,0.3679,0.369,0.3601,0.3609,0.3548,0.3531,0.3524,0.3489,0.3501,0.3579,0.3594,0.3674,0.3813,0.3795,0.3911,0.3947,0.3976,0.3952,0.4052,0.409,0.3689,0.3689,0.3689,0,0,0.3718,0.3691,0.3696,0.3712,0.3692,0.3726,0.3592,0.3645,0.3662,0.3536,0.36,0.3649,0.3664,0.3822,0.3893,0.3788,0.4109,0.4007,0.403,0.3988,0.408,0.4117,0.415,0.3706,0.3703,0.37,0,0,0.3841,0.3843,0.3882,0.3907,0.3916,0.3882,0.391,0.3877,0.3863,0.3963,0.3891,0.4011,0.409,0.412,0.4138,0.4448,0.4328,0.4494,0.457,0.4671,0.47,0.4725,0.4819,0.4851,0.447,0.447,0.4471,0,0.3905,0.3925,0.3924,0.3975,0.398,0.3952,0.3991,0.4023,0.4036,0.4046,0.4025,0.4182,0.4228,0.4352,0.4467,0.4517,0.4534,0.4368,0.4702,0.4726,0.4749,0.4838,0.4871,0.4481,0.448,0.4479,0.4478,0,0.4016,0.4048,0.4105,0.4115,0.4166,0.423,0.424,0.4308,0.4291,0.4279,0.444,0.4525,0.4575,0.4672,0.4649,0.4851,0.4806,0.4753,0.4544,0.4796,0.488,0.4911,0.4497,0.4493,0.449,0.4487,0,0,0.4041,0.4144,0.4145,0.4146,0.4227,0.4252,0.4368,0.4418,0.4417,0.455,0.4574,0.4808,0.481,0.4844,0.4872,0.4973,0.5217,0.4924,0.4924,0.4936,0.5429,0.5346,0.537,0.5183,0.5189,0.5193,0.5442,0,0.4087,0.4174,0.4221,0.4288,0.4316,0.4358,0.4431,0.4497,0.455,0.4613,0.4744,0.4826,0.4883,0.4909,0.5047,0.5146,0.5294,0.5153,0.5252,0.5256,0.5082,0.5402,0.5274,0.5478,0.547,0.5475,0.5479,0,0.4104,0.4158,0.4226,0.4283,0.4296,0.4344,0.439,0.446,0.4584,0.4636,0.476,0.482,0.5024,0.5033,0.533,0.5217,0.5366,0.5456,0.5466,0.5323,0.5228,0.5226,0.5532,0.5391,0.5523,0.552,0.5517,0,0.4014,0.4124,0.4159,0.4188,0.4287,0.4308,0.4352,0.4448,0.4491,0.4633,0.4678,0.4885,0.4977,0.5196,0.5409,0.5373,0.5705,0.5666,0.5753,0.5747,0.5625,0.5598,0.572,0.5934,0.5933,0.5932,0.5932,0,0.3989,0.3999,0.411,0.4123,0.4136,0.4226,0.4246,0.432,0.4437,0.45,0.4662,0.4754,0.5021,0.5217,0.543,0.5677,0.5737,0.5827,0.5828,0.5697,0.5675,0.5524,0.5452,0.5942,0.594,0.5938,0.5936,0,0.3863,0.3948,0.3972,0.4071,0.4089,0.4084,0.4172,0.4191,0.4314,0.4407,0.4458,0.4689,0.4941,0.5196,0.5542,0.5674,0.5793,0.6005,0.5829,0.5805,0.5707,0.5651,0.5558,0.5414,0.6152,0.6151,0.6151,0,0.3805,0.3813,0.3893,0.3898,0.3936,0.3961,0.3976,0.411,0.4158,0.4368,0.4414,0.4663,0.4852,0.5296,0.5582,0.593,0.5794,0.5978,0.5915,0.5734,0.5674,0.5427,0.5294,0.5872,0.5869,0.5867,0.5866,0,0.3687,0.3711,0.3741,0.3759,0.3772,0.3794,0.3847,0.3872,0.4041,0.4144,0.4308,0.4471,0.49,0.5184,0.5594,0.5798,0.5681,0.5943,0.5822,0.5538,0.5212,0.5059,0.5664,0.5848,0.5849,0.5851,0.5852,0.5852,0.3575,0.3565,0.3605,0.3612,0.3618,0.362,0.3609,0.3706,0.378,0.3939,0.4155,0.4391,0.4844,0.5403,0.5535,0.5659,0.5601,0.5629,0.561,0.5398,0.5143,0.5696,0.5811,0.5812,0.5814,0.5815,0.5816,0,0.3449,0.3464,0.346,0.3464,0.3418,0.3477,0.351,0.3509,0.3564,0.3801,0.3969,0.4424,0.476,0.5107,0.5448,0.5379,0.5164,0.525,0.4906,0.482,0.5415,0.5282,0.5202,0.5203,0.5203,0.5203,0.5203,0.5203,0.3388,0.3356,0.3373,0.3278,0.3263,0.32,0.32,0.3231,0.3372,0.3581,0.3827,0.41,0.4549,0.505,0.5149,0.5072,0.473,0.4557,0.4489,0.4955,0.4987,0.5017,0.4875,0.4712,0.4711,0.3724,0.3717,0.3712]},{"header":{"parameterUnit":"m.s-1","parameterCategory":2,"la1":30.2991,"la2":30.254,"lo1":-89.0895,"lo2":-89.0444,"dy":0.0017,"dx":0.0017,"nx":28,"ny":28,"refTime":"2023-07-28T03:00:00:Z","depth":"0","parameterNumber":3,"parameterNumberName":"V-component_of_CURRENTS"},"data":[0,0,0,0,0,0,0,0,0,0,0,0,0,0,0,0,0,0,0,0,0,0,0,0,0,0,0,0,0,0,0,0,0,0,0,0,0,0,0,0,0,0,0,0,0,0,0,0,0,0,0,0,0,0,0,0,0,0,0.0565,0.0564,0,0.0513,0.0513,0.0512,0.0417,0.0416,0.0414,0.0412,0.0312,0.0311,0.031,0,0,0,0,0,0,0,0,0,0,0,0,0,0.0629,0.0628,0.0565,0.0564,0.0563,0.0513,0.0512,0.0512,0.0418,0.0415,0.0413,0.0411,0.0312,0.0311,0.031,0,0,0,0,0,0,0,0,0,0,0,0,0,0.0592,0.0628,0.0565,0.051,0.0504,0.0513,0.0512,0.0512,0.0418,0.0415,0.0413,0.041,0.0312,0.0311,0.031,0.0357,0,0,0.0305,0.0305,0,0,0,0,0,0,0,0,0.0594,0.059,0.0519,0.0514,0.0507,0.0468,0.0498,0.0457,0.0419,0.0452,0.0412,0.0409,0.0361,0.0356,0.0354,0.0353,0.0348,0.0305,0.0304,0.0304,0.0303,0,0,0,0,0,0,0,0.0597,0.0592,0.0545,0.0518,0.0511,0.0504,0.0495,0.0491,0.0422,0.0448,0.0441,0.0436,0.0357,0.0355,0.0351,0.0347,0.0305,0.0304,0.0303,0.0303,0.0446,0.045,0,0,0,0,0,0,0.0603,0.0594,0.0546,0.0543,0.0544,0.0505,0.0495,0.0484,0.0423,0.0411,0.0438,0.0431,0.0359,0.0352,0.0347,0.0457,0.0304,0.0303,0.0302,0.0441,0.0447,0.0452,0,0,0,0,0,0,0.0604,0.0599,0.0548,0.0567,0.056,0.0506,0.0495,0.0485,0.0473,0.0416,0.0402,0.0435,0.0357,0.0348,0.0371,0.045,0.0302,0.0301,0.0436,0.0443,0.0449,0.0641,0,0,0,0,0,0,0.0606,0.06,0.0603,0.0568,0.0559,0.0573,0.0497,0.0486,0.0474,0.0464,0.041,0.0398,0.0354,0.0374,0.037,0.0445,0.03,0.043,0.0439,0.0447,0.0629,0.0654,0.0675,0,0,0,0,0,0.0609,0.063,0.0603,0.0598,0.0562,0.0575,0.0572,0.0524,0.0477,0.0498,0.0468,0.0399,0.0426,0.0377,0.0371,0.0447,0.0426,0.0436,0.0447,0.0619,0.0649,0.0674,0,0,0,0,0,0,0.066,0.0621,0.0591,0.0597,0.0594,0.0559,0.0575,0.0536,0.0529,0.0519,0.0448,0.0438,0.0495,0.0451,0.0398,0.052,0.0419,0.0429,0.0553,0.058,0.0603,0.0618,0.0298,0,0,0,0,0,0.0675,0.0678,0.0646,0.0656,0.0658,0.0618,0.0616,0.0588,0.0572,0.0563,0.0532,0.0517,0.054,0.0539,0.0546,0.0602,0.0545,0.0654,0.0677,0.0696,0.0709,0.0701,0.0723,0.0486,0.0486,0.0486,0,0,0.0696,0.0678,0.0678,0.0668,0.0658,0.0692,0.061,0.0626,0.0664,0.0558,0.061,0.0596,0.0576,0.065,0.0671,0.0615,0.0739,0.0709,0.0726,0.0728,0.0714,0.0736,0.0756,0.0493,0.0492,0.0491,0,0,0.0756,0.0731,0.0756,0.0767,0.0764,0.0755,0.0763,0.0747,0.0751,0.0802,0.0753,0.0797,0.0799,0.0825,0.0831,0.0989,0.0865,0.0981,0.1101,0.1094,0.1112,0.1128,0.1092,0.1102,0.0987,0.0987,0.0987,0,0.0782,0.0801,0.0773,0.0812,0.0831,0.0789,0.0838,0.0859,0.0858,0.0885,0.0845,0.0909,0.09,0.0996,0.1061,0.1044,0.0986,0.0991,0.1121,0.1135,0.1147,0.1106,0.1115,0.0998,0.0996,0.0995,0.0994,0,0.0859,0.0883,0.0911,0.0941,0.0969,0.1009,0.1028,0.1069,0.1066,0.1076,0.1165,0.1168,0.1193,0.1223,0.1191,0.1294,0.1207,0.1151,0.1041,0.1182,0.113,0.1136,0.1013,0.1009,0.1006,0.1003,0,0,0.0889,0.0947,0.0956,0.0988,0.1037,0.1064,0.1164,0.123,0.128,0.1322,0.1391,0.1484,0.1454,0.1463,0.1435,0.1451,0.1513,0.1342,0.1336,0.129,0.1456,0.1369,0.1364,0.1449,0.1451,0.1453,0.1386,0,0.0952,0.1035,0.1059,0.1158,0.1201,0.1227,0.1317,0.138,0.1422,0.1489,0.1529,0.1582,0.1552,0.1558,0.1587,0.1524,0.1534,0.1534,0.1341,0.1335,0.1227,0.1372,0.1338,0.1272,0.139,0.1391,0.1392,0,0.1014,0.1059,0.1153,0.1247,0.1271,0.1332,0.1442,0.1519,0.1618,0.1651,0.1717,0.1707,0.1783,0.171,0.1697,0.1678,0.1597,0.1541,0.1535,0.1388,0.126,0.1152,0.1276,0.0974,0.1399,0.1398,0.1398,0,0.1024,0.1128,0.1197,0.1231,0.1335,0.1394,0.1455,0.1561,0.1638,0.1734,0.1778,0.1836,0.1855,0.1797,0.1715,0.1685,0.1654,0.1587,0.1437,0.1427,0.1331,0.131,0.1129,0.1574,0.1574,0.1574,0.1575,0,0.1071,0.1128,0.1202,0.124,0.1339,0.1407,0.1521,0.1595,0.1707,0.1813,0.1842,0.1918,0.187,0.1846,0.1749,0.1623,0.1678,0.1489,0.1424,0.1399,0.1385,0.1059,0.0892,0.1572,0.1572,0.1573,0.1573,0,0.1069,0.1119,0.1199,0.1303,0.1342,0.1406,0.1547,0.1639,0.1727,0.186,0.1891,0.1975,0.196,0.1884,0.179,0.1656,0.1362,0.1473,0.1438,0.1371,0.0933,0.0779,0.0581,0.0385,0.1297,0.1295,0.1293,0,0.1072,0.1109,0.1217,0.1271,0.1318,0.1421,0.1514,0.1637,0.1743,0.1905,0.1979,0.2007,0.2087,0.1918,0.1703,0.1516,0.1278,0.1284,0.1249,0.0929,0.071,0.0649,0.0493,0.1196,0.1193,0.1191,0.119,0,0.1075,0.1103,0.1167,0.1274,0.1367,0.1488,0.1622,0.1708,0.1873,0.1984,0.2128,0.22,0.2078,0.1938,0.1663,0.1478,0.1026,0.123,0.0925,0.065,0.055,0.0322,0.1187,0.1171,0.1173,0.1174,0.1175,0.1176,0.1061,0.1101,0.1185,0.1291,0.1406,0.1561,0.1672,0.1829,0.2001,0.2234,0.2263,0.2457,0.2202,0.1863,0.1491,0.0816,0.0866,0.063,0.048,0.0458,0.0242,0.1052,0.0941,0.0942,0.0942,0.0942,0.0943,0,0.105,0.1114,0.1208,0.1352,0.1486,0.1554,0.1763,0.1899,0.2108,0.2377,0.2536,0.2639,0.2136,0.1632,0.0783,0.0219,0.0004,-0.0107,-0.0212,-0.0333,0.0413,0.0376,0.0107,0.0107,0.0107,0.0108,0.0108,0.0108,0.1047,0.1126,0.119,0.1396,0.1512,0.1714,0.1842,0.2045,0.2279,0.2659,0.2928,0.3143,0.2857,0.1131,-0.0157,-0.0501,-0.0928,-0.0963,-0.1212,-0.0727,-0.067,-0.0615,-0.0688,-0.1176,-0.1177,-0.1885,-0.1893,-0.1899]}],[{"header":{"parameterUnit":"m.s-1","parameterCategory":2,"la1":30.2991,"la2":30.254,"lo1":-89.0895,"lo2":-89.0444,"dy":0.0017,"dx":0.0017,"nx":28,"ny":28,"refTime":"2023-07-28T03:00:00:Z","depth":"2","parameterNumber":2,"parameterNumberName":"U-component_of_CURRENTS"},"data":[0,0,0,0,0,0,0,0,0,0,0,0,0,0,0,0,0,0,0,0,0,0,0,0,0,0,0,0,0,0,0,0,0,0,0,0,0,0,0,0,0,0,0,0,0,0,0,0,0,0,0,0,0,0,0,0,0,0,0.2039,0.2041,0,0.2155,0.2156,0.2157,0.2191,0.2191,0.2191,0.2191,0.2274,0.2276,0.2279,0,0,0,0,0,0,0,0,0,0,0,0,0,0.1861,0.1864,0.2039,0.2041,0.2043,0.2155,0.2156,0.2157,0.2191,0.2191,0.2191,0.219,0.2273,0.2276,0.2279,0,0,0,0,0,0,0,0,0,0,0,0,0,0.195,0.1865,0.2039,0.2076,0.2081,0.2154,0.2156,0.2157,0.2191,0.2191,0.2191,0.219,0.2272,0.2276,0.2279,0.2309,0,0,0.229,0.2292,0,0,0,0,0,0,0,0,0.1945,0.1956,0.2069,0.2074,0.2079,0.2162,0.2124,0.2208,0.2191,0.2145,0.2191,0.219,0.2236,0.2243,0.226,0.2313,0.2317,0.2291,0.2293,0.2295,0.2296,0,0,0,0,0,0,0,0.1939,0.1952,0.2081,0.2071,0.2077,0.2092,0.2103,0.214,0.2188,0.2149,0.2153,0.2172,0.2238,0.2257,0.2262,0.2318,0.2291,0.2294,0.2296,0.2298,0.2523,0.2526,0,0,0,0,0,0,0.1933,0.1946,0.2077,0.2085,0.2014,0.2096,0.2108,0.2132,0.2188,0.2198,0.2172,0.2173,0.2251,0.2258,0.2265,0.2401,0.2295,0.2298,0.23,0.2519,0.2524,0.2528,0,0,0,0,0,0,0.1928,0.1943,0.2073,0.202,0.2038,0.2099,0.2126,0.2135,0.2178,0.2207,0.2215,0.2209,0.2251,0.226,0.2337,0.2401,0.23,0.2303,0.2514,0.252,0.2526,0.261,0,0,0,0,0,0,0.1923,0.1941,0.1958,0.202,0.2041,0.2133,0.2127,0.2138,0.2191,0.2194,0.2241,0.2246,0.2251,0.2331,0.234,0.2404,0.2306,0.251,0.2517,0.2524,0.2603,0.2618,0.2632,0,0,0,0,0,0.1916,0.1942,0.1958,0.1975,0.2062,0.2135,0.2147,0.2185,0.2193,0.2221,0.2265,0.2246,0.2383,0.2337,0.2347,0.2413,0.2506,0.2515,0.2523,0.2596,0.2615,0.2631,0,0,0,0,0,0,0.1872,0.1951,0.1969,0.2017,0.2079,0.2142,0.2173,0.2203,0.226,0.2268,0.2287,0.2298,0.2392,0.2396,0.2346,0.2503,0.2445,0.2456,0.2498,0.2516,0.253,0.2538,0.2309,0,0,0,0,0,0.1871,0.1913,0.1988,0.2027,0.2061,0.2122,0.2158,0.2192,0.2249,0.2274,0.2315,0.2368,0.2433,0.2466,0.2514,0.2594,0.2596,0.2648,0.2663,0.2675,0.2692,0.2771,0.2793,0.2555,0.2555,0.2555,0,0,0.1862,0.1914,0.1935,0.2021,0.2069,0.2135,0.2142,0.2211,0.2277,0.2275,0.2375,0.2417,0.2467,0.2562,0.2605,0.2574,0.2739,0.2685,0.2695,0.2706,0.2782,0.2805,0.2825,0.2561,0.256,0.2559,0,0,0.1872,0.1917,0.1958,0.2018,0.2105,0.2153,0.218,0.2268,0.2319,0.2415,0.2445,0.253,0.2612,0.2675,0.2712,0.2838,0.2812,0.2857,0.2936,0.3013,0.3032,0.305,0.3051,0.3067,0.2864,0.2865,0.2865,0,0.1856,0.1929,0.1981,0.2045,0.2103,0.2166,0.2235,0.2301,0.2406,0.2467,0.2457,0.2636,0.2671,0.2811,0.2863,0.287,0.2883,0.2859,0.3029,0.3047,0.3063,0.306,0.3077,0.287,0.2869,0.2869,0.2868,0,0.1907,0.197,0.2004,0.2107,0.2173,0.2244,0.2345,0.2423,0.2488,0.2557,0.2707,0.2772,0.2878,0.2914,0.2929,0.3082,0.3041,0.3033,0.2975,0.3091,0.3081,0.3097,0.2877,0.2875,0.2874,0.2872,0,0,0.1865,0.2009,0.2023,0.2082,0.2218,0.2274,0.2401,0.2535,0.2623,0.2729,0.2849,0.299,0.3029,0.3078,0.3119,0.3194,0.331,0.3173,0.3175,0.3155,0.3437,0.326,0.326,0.3336,0.334,0.3344,0.337,0,0.1894,0.2009,0.2084,0.22,0.2274,0.2377,0.2484,0.2611,0.2721,0.2846,0.2955,0.3074,0.3092,0.3151,0.3241,0.3308,0.3365,0.3301,0.3345,0.3345,0.316,0.3278,0.3069,0.3064,0.3386,0.3388,0.339,0,0.1929,0.2007,0.2121,0.2263,0.2303,0.2379,0.256,0.2667,0.2855,0.2943,0.309,0.3163,0.3329,0.3299,0.3475,0.3437,0.3453,0.3476,0.3477,0.3298,0.3201,0.3011,0.3081,0.3417,0.3415,0.3413,0.3411,0,0.1887,0.2033,0.2122,0.2174,0.2341,0.2415,0.2512,0.2699,0.2801,0.3012,0.3087,0.3285,0.3377,0.3474,0.3542,0.3527,0.3677,0.365,0.3493,0.3477,0.3299,0.326,0.3751,0.3751,0.375,0.375,0.375,0,0.1899,0.1967,0.2105,0.2154,0.2256,0.239,0.2524,0.2651,0.2836,0.2959,0.3127,0.3239,0.3433,0.3534,0.3576,0.3584,0.3708,0.3527,0.3496,0.3317,0.3281,0.3592,0.3573,0.3751,0.3751,0.3751,0.3751,0,0.1842,0.194,0.2032,0.2189,0.2239,0.231,0.2495,0.2598,0.2775,0.2937,0.3004,0.3239,0.3386,0.3503,0.3653,0.3597,0.3632,0.3585,0.3321,0.3258,0.3362,0.3348,0.3426,0.3421,0.3416,0.3412,0.3409,0,0.1823,0.1869,0.2012,0.206,0.213,0.2255,0.235,0.2552,0.2664,0.2922,0.2985,0.3181,0.3279,0.3397,0.3414,0.3427,0.3535,0.317,0.3106,0.3378,0.3341,0.3334,0.3327,0.2898,0.2891,0.2885,0.288,0,0.1765,0.1813,0.1878,0.198,0.2071,0.2171,0.2318,0.2383,0.2626,0.2746,0.2905,0.299,0.3125,0.3077,0.3081,0.3057,0.3159,0.3042,0.3461,0.299,0.2877,0.2841,0.2852,0.2828,0.2833,0.2837,0.284,0.2842,0.1693,0.1717,0.1802,0.189,0.1985,0.2067,0.2114,0.2261,0.2381,0.2503,0.266,0.2689,0.2791,0.2682,0.2647,0.2639,0.282,0.2707,0.2728,0.2755,0.2666,0.2549,0.2419,0.2422,0.2425,0.2427,0.2429,0,0.1604,0.1655,0.1718,0.1809,0.1858,0.1965,0.208,0.2092,0.2167,0.2278,0.2328,0.2137,0.2125,0.2263,0.2172,0.2146,0.2165,0.2074,0.2115,0.2167,0.2213,0.2101,0.1702,0.17,0.1698,0.1696,0,0,0.1561,0.1583,0.1627,0.1664,0.1738,0.1779,0.1821,0.1833,0.1893,0.1816,0.181,0.1909,0.2125,0.1845,0.1853,0.1781,0.1955,0.1713,0.2298,0.2397,0.244,0.2582,0.2466,0,0,0,0,0]},{"header":{"parameterUnit":"m.s-1","parameterCategory":2,"la1":30.2991,"la2":30.254,"lo1":-89.0895,"lo2":-89.0444,"dy":0.0017,"dx":0.0017,"nx":28,"ny":28,"refTime":"2023-07-28T03:00:00:Z","depth":"2","parameterNumber":3,"parameterNumberName":"V-component_of_CURRENTS"},"data":[0,0,0,0,0,0,0,0,0,0,0,0,0,0,0,0,0,0,0,0,0,0,0,0,0,0,0,0,0,0,0,0,0,0,0,0,0,0,0,0,0,0,0,0,0,0,0,0,0,0,0,0,0,0,0,0,0,0,-0.0644,-0.0644,0,-0.0654,-0.0654,-0.0655,-0.0657,-0.0656,-0.0656,-0.0656,-0.0713,-0.0715,-0.0716,0,0,0,0,0,0,0,0,0,0,0,0,0,-0.0652,-0.0651,-0.0644,-0.0644,-0.0644,-0.0654,-0.0654,-0.0655,-0.0657,-0.0656,-0.0656,-0.0656,-0.0713,-0.0715,-0.0716,0,0,0,0,0,0,0,0,0,0,0,0,0,-0.0653,-0.0651,-0.0644,-0.0647,-0.0647,-0.0654,-0.0654,-0.0655,-0.0657,-0.0656,-0.0656,-0.0656,-0.0712,-0.0714,-0.0717,-0.0732,0,0,-0.0724,-0.0725,0,0,0,0,0,0,0,0,-0.0653,-0.0653,-0.0646,-0.0646,-0.0647,-0.0655,-0.0678,-0.0683,-0.0657,-0.0652,-0.0656,-0.0656,-0.0698,-0.0702,-0.0702,-0.0735,-0.0737,-0.0724,-0.0725,-0.0726,-0.0727,0,0,0,0,0,0,0,-0.0653,-0.0653,-0.0647,-0.0646,-0.0647,-0.0657,-0.0657,-0.0679,-0.0676,-0.0653,-0.0653,-0.0655,-0.0699,-0.07,-0.0704,-0.0738,-0.0724,-0.0726,-0.0727,-0.0728,-0.077,-0.0769,0,0,0,0,0,0,-0.0651,-0.0652,-0.0647,-0.0648,-0.0651,-0.0657,-0.0656,-0.0652,-0.0675,-0.0678,-0.0655,-0.0655,-0.0696,-0.0701,-0.0706,-0.0682,-0.0726,-0.0729,-0.073,-0.077,-0.077,-0.0769,0,0,0,0,0,0,-0.0651,-0.0651,-0.0647,-0.0651,-0.0651,-0.0656,-0.0651,-0.0652,-0.0649,-0.0676,-0.068,-0.0651,-0.0696,-0.0703,-0.0721,-0.0686,-0.073,-0.0732,-0.077,-0.077,-0.0769,-0.0663,0,0,0,0,0,0,-0.0651,-0.065,-0.0645,-0.0651,-0.0651,-0.0639,-0.0651,-0.0652,-0.0651,-0.0651,-0.0674,-0.0679,-0.0697,-0.0718,-0.0723,-0.069,-0.0733,-0.0771,-0.077,-0.077,-0.0667,-0.0659,-0.0652,0,0,0,0,0,-0.0652,-0.0635,-0.0644,-0.0644,-0.0643,-0.0639,-0.0639,-0.0643,-0.0651,-0.0641,-0.0663,-0.0678,-0.0718,-0.0719,-0.0726,-0.0693,-0.0771,-0.077,-0.077,-0.067,-0.066,-0.0652,0,0,0,0,0,0,-0.0625,-0.0634,-0.0644,-0.0629,-0.0632,-0.0639,-0.0629,-0.064,-0.0649,-0.0649,-0.068,-0.0686,-0.0689,-0.0716,-0.0717,-0.0707,-0.0745,-0.0746,-0.0667,-0.0658,-0.0651,-0.0602,-0.0735,0,0,0,0,0,-0.0621,-0.0614,-0.0625,-0.0611,-0.0612,-0.0624,-0.0623,-0.0626,-0.0636,-0.0639,-0.0657,-0.0678,-0.0693,-0.0696,-0.0718,-0.0714,-0.0748,-0.0699,-0.0691,-0.0685,-0.0652,-0.0681,-0.0672,-0.0767,-0.0767,-0.0767,0,0,-0.0604,-0.061,-0.0604,-0.0606,-0.0609,-0.0587,-0.0622,-0.0612,-0.0587,-0.0646,-0.0622,-0.0659,-0.0691,-0.0682,-0.0684,-0.0696,-0.0684,-0.0684,-0.0677,-0.0648,-0.0679,-0.067,-0.0661,-0.0767,-0.0767,-0.0767,0,0,-0.056,-0.0575,-0.0552,-0.0552,-0.0556,-0.0559,-0.0555,-0.0561,-0.0558,-0.0553,-0.0585,-0.0598,-0.0623,-0.0626,-0.0634,-0.0604,-0.0651,-0.0618,-0.0526,-0.0556,-0.0547,-0.054,-0.0598,-0.0597,-0.0604,-0.0604,-0.0604,0,-0.0538,-0.0508,-0.0543,-0.0519,-0.05,-0.0541,-0.0497,-0.0503,-0.0512,-0.0496,-0.0531,-0.0548,-0.0586,-0.0555,-0.0542,-0.0581,-0.0618,-0.0552,-0.0543,-0.0536,-0.0531,-0.0592,-0.0592,-0.0599,-0.0599,-0.06,-0.06,0,-0.0474,-0.045,-0.0434,-0.0413,-0.0404,-0.0374,-0.0385,-0.0372,-0.0383,-0.0388,-0.0374,-0.0429,-0.0425,-0.0451,-0.0484,-0.0453,-0.0502,-0.0536,-0.0556,-0.0514,-0.0583,-0.0584,-0.0591,-0.0593,-0.0595,-0.0596,0,0,-0.0407,-0.0389,-0.038,-0.0338,-0.0339,-0.0308,-0.0278,-0.0242,-0.0191,-0.0233,-0.0172,-0.022,-0.0251,-0.0263,-0.0314,-0.0339,-0.0356,-0.0406,-0.0411,-0.0447,-0.0439,-0.0474,-0.0481,-0.0387,-0.0386,-0.0385,-0.0512,0,-0.0334,-0.0257,-0.0272,-0.0177,-0.0128,-0.0148,-0.0103,-0.0086,-0.0084,-0.0044,-0.0106,-0.0082,-0.018,-0.0166,-0.0209,-0.0303,-0.0351,-0.0319,-0.0488,-0.0493,-0.0514,-0.0479,-0.0446,-0.0555,-0.0514,-0.0515,-0.0515,0,-0.0251,-0.0207,-0.011,-0.003,-0.0009,0.0037,0.0126,0.0166,0.0181,0.0183,0.0179,0.0118,0.0092,-0.0008,-0.0148,-0.0122,-0.0264,-0.0364,-0.0372,-0.0431,-0.0528,-0.0587,-0.056,-0.0519,-0.0519,-0.0518,-0.0518,0,-0.0155,-0.0078,0.0013,0.0036,0.01,0.0157,0.0206,0.0243,0.031,0.0342,0.0376,0.031,0.0305,0.0133,-0.0084,-0.0109,-0.0262,-0.033,-0.0508,-0.0515,-0.0529,-0.0537,-0.0444,-0.0444,-0.0444,-0.0444,-0.0443,0,-0.0057,0.0027,0.007,0.0127,0.0258,0.027,0.0415,0.0447,0.0513,0.0607,0.051,0.0548,0.0344,0.0217,-0.0017,-0.0252,-0.0218,-0.0473,-0.0532,-0.0497,-0.05,-0.0498,-0.0502,-0.0448,-0.0447,-0.0446,-0.0446,0,0.0042,0.0064,0.0184,0.0269,0.0307,0.0412,0.0551,0.0655,0.069,0.0809,0.0826,0.0757,0.0587,0.0327,0.0064,-0.0138,-0.0383,-0.0492,-0.0448,-0.0499,-0.0644,-0.0642,-0.069,-0.0692,-0.0693,-0.0695,-0.0696,0,0.0104,0.0168,0.0291,0.037,0.0416,0.0561,0.0664,0.0747,0.0853,0.0925,0.0984,0.0871,0.076,0.0357,0.0014,-0.0382,-0.0431,-0.0588,-0.0628,-0.0607,-0.0661,-0.0657,-0.0652,-0.0632,-0.0632,-0.0633,-0.0633,0,0.0225,0.026,0.035,0.05,0.0621,0.0769,0.0914,0.101,0.1109,0.1168,0.1205,0.1114,0.0748,0.0383,-0.0107,-0.0365,-0.0515,-0.061,-0.0578,-0.0565,-0.056,-0.0611,-0.0607,-0.0637,-0.0636,-0.0636,-0.0636,-0.0636,0.0315,0.0398,0.0503,0.0651,0.0793,0.0951,0.1084,0.1208,0.1348,0.1393,0.1289,0.1134,0.0792,0.0128,-0.0223,-0.0557,-0.0592,-0.0726,-0.0721,-0.0717,-0.0677,-0.0674,-0.0767,-0.0768,-0.0768,-0.0768,-0.0769,0,0.0424,0.0512,0.0651,0.0825,0.0985,0.1041,0.124,0.135,0.1499,0.1449,0.1379,0.0952,0.0534,0.0165,-0.0341,-0.0667,-0.0668,-0.0748,-0.0681,-0.0677,-0.0674,-0.0628,-0.0708,-0.0708,-0.0708,-0.0708,0,0,0.0491,0.0632,0.0696,0.0957,0.1087,0.1306,0.1421,0.1551,0.1585,0.1477,0.1334,0.1041,0.0623,0.0268,-0.0156,-0.0411,-0.0454,-0.0456,-0.0482,-0.0349,-0.034,-0.0654,-0.058,0,0,0,0,0]}],[{"header":{"parameterUnit":"m.s-1","parameterCategory":2,"la1":30.2991,"la2":30.254,"lo1":-89.0895,"lo2":-89.0444,"dy":0.0017,"dx":0.0017,"nx":28,"ny":28,"refTime":"2023-07-28T03:00:00:Z","depth":"4","parameterNumber":2,"parameterNumberName":"U-component_of_CURRENTS"},"data":[0,0,0,0,0,0,0,0,0,0,0,0,0,0,0,0,0,0,0,0,0,0,0,0,0,0,0,0,0,0,0,0,0,0,0,0,0,0,0,0,0,0,0,0,0,0,0,0,0,0,0,0,0,0,0,0,0,0,0.0802,0.0804,0,0.0875,0.0875,0.0876,0.0921,0.0922,0.0922,0.0923,0.1001,0.1002,0.1003,0,0,0,0,0,0,0,0,0,0,0,0,0,0.0719,0.0719,0.0802,0.0804,0.0805,0.0875,0.0875,0.0876,0.0921,0.0922,0.0922,0.0923,0.1,0.1002,0.1004,0,0,0,0,0,0,0,0,0,0,0,0,0,0.0764,0.072,0.0802,0.084,0.0845,0.0875,0.0875,0.0876,0.092,0.0922,0.0923,0.0924,0.1,0.1002,0.1004,0.0993,0,0,0.101,0.1011,0,0,0,0,0,0,0,0,0.0761,0.0766,0.0833,0.0838,0.0843,0.0895,0.0875,0.0917,0.092,0.0885,0.0923,0.0924,0.0969,0.0973,0.0976,0.0997,0.1,0.101,0.1011,0.1012,0.1013,0,0,0,0,0,0,0,0.0758,0.0764,0.0825,0.0835,0.0841,0.086,0.0867,0.0883,0.0915,0.0889,0.0894,0.091,0.0971,0.0974,0.0979,0.1001,0.101,0.1012,0.1013,0.1014,0.1093,0.1094,0,0,0,0,0,0,0.0759,0.076,0.0823,0.0828,0.0811,0.0861,0.0868,0.0872,0.0915,0.0925,0.0909,0.0912,0.097,0.0976,0.0981,0.1067,0.1012,0.1014,0.1015,0.1092,0.1093,0.1094,0,0,0,0,0,0,0.0756,0.0763,0.082,0.0801,0.0811,0.0861,0.0866,0.0873,0.0915,0.0932,0.0941,0.0949,0.0971,0.0979,0.1029,0.1066,0.1015,0.1017,0.1091,0.1092,0.1094,0.1176,0,0,0,0,0,0,0.0753,0.0761,0.0783,0.0801,0.0812,0.0862,0.0865,0.0874,0.0925,0.093,0.0968,0.0974,0.0973,0.1026,0.1031,0.1068,0.1018,0.109,0.1092,0.1093,0.1172,0.118,0.1187,0,0,0,0,0,0.075,0.077,0.0782,0.0792,0.0833,0.0863,0.0871,0.0907,0.0926,0.0947,0.0977,0.0975,0.1039,0.1029,0.1034,0.1073,0.1089,0.1091,0.1093,0.1169,0.1178,0.1186,0,0,0,0,0,0,0.074,0.0777,0.0792,0.0821,0.0853,0.0874,0.0904,0.0927,0.0966,0.098,0.0993,0.1001,0.1055,0.1048,0.1036,0.1097,0.1061,0.1064,0.1117,0.1126,0.1133,0.1125,0.102,0,0,0,0,0,0.0748,0.0779,0.0807,0.0837,0.0852,0.0884,0.091,0.0932,0.0963,0.0983,0.1007,0.1031,0.1059,0.1083,0.1095,0.1136,0.1123,0.116,0.1168,0.1174,0.1169,0.1185,0.1193,0.1101,0.1101,0.11,0,0,0.0757,0.0781,0.0802,0.0839,0.0863,0.0893,0.0901,0.0946,0.0978,0.0984,0.1039,0.106,0.1073,0.1117,0.114,0.1126,0.1195,0.1177,0.1182,0.1174,0.1188,0.1197,0.1205,0.1102,0.1102,0.1101,0,0,0.0773,0.0805,0.083,0.0857,0.0904,0.0925,0.0947,0.0983,0.1009,0.1061,0.1073,0.1116,0.1157,0.1173,0.1186,0.1239,0.1229,0.1251,0.1292,0.1308,0.1316,0.1323,0.1326,0.1332,0.126,0.126,0.126,0,0.0788,0.0815,0.0844,0.0868,0.0898,0.0944,0.0971,0.1003,0.1055,0.1083,0.1089,0.1162,0.1177,0.1234,0.1256,0.1257,0.1262,0.1264,0.1319,0.1325,0.1331,0.1332,0.1338,0.1264,0.1263,0.1263,0.1263,0,0.0803,0.0844,0.0861,0.0909,0.0939,0.0978,0.1017,0.1071,0.1114,0.1139,0.1207,0.1226,0.1275,0.1287,0.1295,0.135,0.134,0.1326,0.13,0.1345,0.1343,0.1348,0.127,0.1268,0.1267,0.1266,0,0,0.0793,0.0862,0.0871,0.0905,0.0966,0.0992,0.106,0.1124,0.1182,0.1226,0.1284,0.1332,0.1355,0.137,0.1385,0.1399,0.145,0.1392,0.139,0.14,0.1489,0.1446,0.1446,0.1459,0.146,0.1461,0.1475,0,0.0805,0.0849,0.0883,0.095,0.0979,0.1047,0.1106,0.1172,0.1228,0.1297,0.1329,0.1384,0.1383,0.1424,0.1443,0.1446,0.1465,0.1447,0.1437,0.1437,0.1398,0.1451,0.1465,0.1478,0.1479,0.148,0.1481,0,0.0803,0.0839,0.0888,0.098,0.0999,0.106,0.117,0.1226,0.1328,0.1369,0.1435,0.1457,0.1509,0.1489,0.1522,0.1519,0.1517,0.1503,0.1503,0.1433,0.1402,0.142,0.1489,0.1488,0.1487,0.1487,0.1486,0,0.0766,0.0847,0.0889,0.0917,0.1021,0.1088,0.1163,0.1264,0.1317,0.1426,0.1472,0.1526,0.1567,0.1571,0.158,0.1559,0.1596,0.1557,0.1509,0.1505,0.1502,0.1494,0.1572,0.1572,0.1572,0.1572,0.1572,0,0.0757,0.0799,0.0894,0.0926,0.1004,0.1084,0.1185,0.1272,0.1383,0.1443,0.1516,0.1559,0.1593,0.1623,0.1607,0.1588,0.1627,0.1521,0.1511,0.1536,0.1532,0.1505,0.1498,0.1572,0.1572,0.1572,0.1572,0,0.0709,0.0769,0.0827,0.0946,0.0992,0.1052,0.1198,0.1264,0.1385,0.147,0.1507,0.1599,0.1638,0.1662,0.1669,0.1622,0.1602,0.1587,0.1629,0.162,0.1483,0.1479,0.1503,0.1502,0.1501,0.15,0.1499,0,0.0683,0.0711,0.0821,0.0859,0.0928,0.1034,0.1106,0.1251,0.1312,0.1476,0.1501,0.1595,0.1641,0.1615,0.1645,0.1626,0.1606,0.1586,0.151,0.1491,0.1479,0.1477,0.1474,0.1497,0.1497,0.1497,0.1496,0,0.0634,0.0682,0.0728,0.0807,0.0889,0.0957,0.1081,0.1121,0.1283,0.1392,0.1469,0.1508,0.1558,0.1565,0.1592,0.1566,0.1587,0.1573,0.1573,0.1502,0.1484,0.1473,0.1472,0.1493,0.1493,0.1494,0.1494,0,0.0593,0.0607,0.0678,0.0741,0.0822,0.0877,0.0948,0.1047,0.1133,0.1327,0.1345,0.1452,0.1544,0.1537,0.1551,0.1545,0.1493,0.1422,0.1429,0.1434,0.1407,0.1375,0.1349,0,0,0,0,0,0.0547,0.0561,0.0609,0.0677,0.0752,0.0805,0.0926,0.1001,0.1157,0.1182,0.1273,0.1322,0.1374,0.1421,0.1393,0.1492,0.1482,0.1453,0.1399,0.1472,0.1476,0.1453,0,0,0,0,0,0,0.0515,0.0554,0.0579,0.0612,0.0647,0.0727,0.0798,0.0901,0.093,0.1088,0.1115,0.1241,0.1292,0.1369,0.1364,0.138,0.132,0.1527,0.1524,0.1469,0.1473,0.1477,0.1455,0,0,0,0,0]},{"header":{"parameterUnit":"m.s-1","parameterCategory":2,"la1":30.2991,"la2":30.254,"lo1":-89.0895,"lo2":-89.0444,"dy":0.0017,"dx":0.0017,"nx":28,"ny":28,"refTime":"2023-07-28T03:00:00:Z","depth":"4","parameterNumber":3,"parameterNumberName":"V-component_of_CURRENTS"},"data":[0,0,0,0,0,0,0,0,0,0,0,0,0,0,0,0,0,0,0,0,0,0,0,0,0,0,0,0,0,0,0,0,0,0,0,0,0,0,0,0,0,0,0,0,0,0,0,0,0,0,0,0,0,0,0,0,0,0,-0.0093,-0.0094,0,-0.0153,-0.0154,-0.0154,-0.0194,-0.0195,-0.0195,-0.0196,-0.0276,-0.0278,-0.0279,0,0,0,0,0,0,0,0,0,0,0,0,0,-0.0019,-0.002,-0.0093,-0.0094,-0.0095,-0.0153,-0.0154,-0.0154,-0.0194,-0.0195,-0.0195,-0.0196,-0.0276,-0.0278,-0.028,0,0,0,0,0,0,0,0,0,0,0,0,0,-0.006,-0.002,-0.0092,-0.0123,-0.0127,-0.0153,-0.0154,-0.0155,-0.0194,-0.0195,-0.0195,-0.0196,-0.0275,-0.0277,-0.028,-0.0281,0,0,-0.0288,-0.0289,0,0,0,0,0,0,0,0,-0.0058,-0.0062,-0.0118,-0.0121,-0.0125,-0.0169,-0.0158,-0.0199,-0.0194,-0.0166,-0.0196,-0.0196,-0.0243,-0.0248,-0.0255,-0.0285,-0.0289,-0.0288,-0.0289,-0.0291,-0.0291,0,0,0,0,0,0,0,-0.0055,-0.006,-0.0114,-0.0119,-0.0123,-0.0137,-0.0143,-0.0165,-0.0198,-0.0168,-0.0172,-0.0182,-0.0245,-0.0252,-0.0257,-0.029,-0.0288,-0.029,-0.0292,-0.0293,-0.0365,-0.0366,0,0,0,0,0,0,-0.0051,-0.0057,-0.0112,-0.0116,-0.0095,-0.0138,-0.0145,-0.0152,-0.0198,-0.0206,-0.0182,-0.0184,-0.0247,-0.0254,-0.026,-0.0302,-0.0291,-0.0293,-0.0294,-0.0365,-0.0365,-0.0366,0,0,0,0,0,0,-0.0049,-0.0055,-0.011,-0.009,-0.0099,-0.0138,-0.0147,-0.0153,-0.0173,-0.0208,-0.0216,-0.0197,-0.0248,-0.0256,-0.0295,-0.0304,-0.0294,-0.0296,-0.0364,-0.0365,-0.0366,-0.0361,0,0,0,0,0,0,-0.0046,-0.0054,-0.0059,-0.009,-0.01,-0.0125,-0.0146,-0.0154,-0.0179,-0.0183,-0.0224,-0.0231,-0.0249,-0.0291,-0.0297,-0.0307,-0.0298,-0.0364,-0.0365,-0.0365,-0.0361,-0.0362,-0.0362,0,0,0,0,0,-0.0043,-0.0038,-0.0059,-0.0066,-0.0105,-0.0125,-0.0131,-0.016,-0.0179,-0.0182,-0.022,-0.023,-0.03,-0.0294,-0.0301,-0.0311,-0.0364,-0.0364,-0.0365,-0.0361,-0.0361,-0.0362,0,0,0,0,0,0,-0.0001,-0.0043,-0.0066,-0.0073,-0.0102,-0.0133,-0.0136,-0.0164,-0.0196,-0.0203,-0.0239,-0.0249,-0.029,-0.0298,-0.029,-0.0334,-0.0332,-0.0334,-0.0326,-0.0327,-0.0327,-0.031,-0.0301,0,0,0,0,0,0.0003,-0.0008,-0.005,-0.0055,-0.0067,-0.0106,-0.012,-0.0144,-0.0176,-0.0191,-0.0222,-0.0256,-0.0295,-0.031,-0.034,-0.036,-0.0379,-0.037,-0.0371,-0.0371,-0.0362,-0.0413,-0.0418,-0.0369,-0.0369,-0.0369,0,0,0.0016,-0.0007,-0.0015,-0.0048,-0.0069,-0.0082,-0.0115,-0.0133,-0.015,-0.0194,-0.0221,-0.0265,-0.0304,-0.0335,-0.0352,-0.0344,-0.0395,-0.0373,-0.0373,-0.0363,-0.0415,-0.042,-0.0424,-0.0369,-0.0369,-0.0369,0,0,0.0046,0.002,0.0019,-0.0001,-0.0037,-0.0063,-0.0072,-0.0112,-0.0134,-0.0168,-0.0215,-0.0263,-0.0302,-0.034,-0.0363,-0.0383,-0.0405,-0.0392,-0.0374,-0.0424,-0.0428,-0.0432,-0.046,-0.0466,-0.0383,-0.0383,-0.0383,0,0.0059,0.0049,0.0017,0.0014,-0.0001,-0.0055,-0.006,-0.0086,-0.0137,-0.0163,-0.0172,-0.0269,-0.0303,-0.0362,-0.0368,-0.0385,-0.0409,-0.0369,-0.0425,-0.0429,-0.0434,-0.0461,-0.0468,-0.0383,-0.0383,-0.0383,-0.0383,0,0.0085,0.0074,0.0078,0.0049,0.0033,0.0021,-0.0023,-0.005,-0.0089,-0.0128,-0.0194,-0.025,-0.0307,-0.0329,-0.0353,-0.0406,-0.0413,-0.0429,-0.0422,-0.0438,-0.0466,-0.0474,-0.0382,-0.0383,-0.0383,-0.0383,0,0,0.0111,0.0095,0.0094,0.0086,0.0046,0.0037,0.0009,-0.0041,-0.0068,-0.0123,-0.0164,-0.0241,-0.0285,-0.0313,-0.0363,-0.04,-0.0454,-0.0419,-0.0422,-0.0444,-0.0553,-0.0516,-0.0521,-0.0486,-0.0487,-0.0488,-0.0559,0,0.0129,0.0139,0.012,0.0118,0.0112,0.0065,0.0046,-0.0003,-0.0053,-0.0102,-0.0181,-0.0233,-0.0275,-0.0307,-0.0358,-0.0437,-0.0475,-0.0432,-0.0535,-0.0537,-0.0502,-0.0529,-0.0492,-0.0564,-0.0566,-0.0568,-0.0569,0,0.0144,0.0148,0.0158,0.0141,0.0136,0.0128,0.0077,0.0055,-0.0026,-0.0065,-0.0141,-0.0203,-0.0286,-0.0308,-0.0443,-0.0416,-0.0478,-0.0529,-0.0534,-0.0504,-0.0515,-0.0546,-0.0583,-0.0582,-0.0581,-0.058,-0.0579,0,0.0164,0.0166,0.0175,0.0171,0.015,0.0142,0.0125,0.0062,0.0044,-0.0042,-0.0068,-0.0186,-0.0236,-0.0342,-0.0456,-0.0453,-0.0591,-0.0603,-0.0628,-0.0626,-0.0639,-0.0634,-0.0688,-0.0688,-0.0688,-0.0688,-0.0687,0,0.0175,0.018,0.019,0.0194,0.0204,0.018,0.017,0.0131,0.0083,0.0065,-0.0043,-0.0084,-0.0246,-0.0348,-0.0451,-0.0563,-0.0595,-0.0625,-0.0646,-0.0634,-0.0628,-0.0644,-0.0638,-0.069,-0.069,-0.0689,-0.0689,0,0.0182,0.0188,0.0203,0.0207,0.0213,0.0221,0.022,0.021,0.0162,0.0135,0.0115,-0.0015,-0.0144,-0.0301,-0.047,-0.0541,-0.0658,-0.0688,-0.0653,-0.0671,-0.0658,-0.0651,-0.0718,-0.0717,-0.0716,-0.0716,-0.0716,0,0.0185,0.0195,0.0226,0.0246,0.025,0.0266,0.0275,0.0248,0.0246,0.0182,0.0174,0.0047,-0.0052,-0.0261,-0.0431,-0.0628,-0.065,-0.0703,-0.0689,-0.065,-0.0663,-0.0657,-0.0651,-0.0715,-0.0715,-0.0715,-0.0714,0,0.0191,0.0205,0.0223,0.0271,0.0297,0.0324,0.0341,0.0352,0.0324,0.0287,0.0231,0.0107,-0.0038,-0.0228,-0.0387,-0.0528,-0.0669,-0.0698,-0.07,-0.0687,-0.0647,-0.066,-0.0655,-0.0713,-0.0713,-0.0713,-0.0713,0,0.0199,0.0216,0.025,0.0289,0.0331,0.0368,0.0376,0.0381,0.038,0.0326,0.0309,0.014,0.0034,-0.0176,-0.0324,-0.0462,-0.0488,-0.0516,-0.0528,-0.0532,-0.0459,-0.038,-0.0381,0,0,0,0,0,0.0204,0.0226,0.0265,0.031,0.0355,0.038,0.0412,0.0414,0.0406,0.0388,0.0355,0.0224,0.0006,-0.0107,-0.0234,-0.0325,-0.0525,-0.0478,-0.0566,-0.0703,-0.0705,-0.0648,0,0,0,0,0,0,0.0205,0.0243,0.0263,0.0324,0.036,0.0407,0.0432,0.0428,0.0417,0.0391,0.0273,0.0213,-0.0012,0.0082,-0.0231,-0.0278,-0.0344,-0.059,-0.0591,-0.0702,-0.0703,-0.0705,-0.0648,0,0,0,0,0]}]]